• In France
  • List of Countries
  • For 7 days
  • Water Temperature
  • Satellite Maps
  • Weather Map
  • Weather Widgets
  • user-avatar
    Login

    Hourly Weather Quito

    Today, 13 November, Tuesday

    Time Temperature Precipitation Wind Pressure Humidity
    00:00 +19°C° 0.1 mm 1 mps 622 mmHg 82%
    01:00 +19°C° 0 mm 1 mps 622 mmHg 81%
    02:00 +18°C° 0.1 mm 1 mps 622 mmHg 83%
    03:00 +18°C° 0.1 mm 1 mps 621 mmHg 84%
    04:00 +18°C° 0.1 mm 1 mps 621 mmHg 86%
    05:00 +19°C° 0 mm 1 mps 622 mmHg 81%
    06:00 +20°C° 0 mm 1 mps 622 mmHg 76%
    07:00 +22°C° 0 mm 1 mps 623 mmHg 71%
    08:00 +24°C° 0 mm 2 mps 624 mmHg 56%
    09:00 +27°C° 0 mm 3 mps 624 mmHg 41%
    10:00 +29°C° 0 mm 5 mps 625 mmHg 27%
    11:00 +30°C° 0 mm 4 mps 624 mmHg 25%
    12:00 +32°C° 0 mm 4 mps 624 mmHg 24%
    13:00 +33°C° 0 mm 3 mps 623 mmHg 22%
    14:00 +31°C° 0 mm 3 mps 623 mmHg 23%
    15:00 +31°C° 0 mm 3 mps 623 mmHg 23%
    16:00 +31°C° 0 mm 2 mps 622 mmHg 24%
    17:00 +28°C° 0 mm 2 mps 622 mmHg 28%
    18:00 +26°C° 0 mm 1 mps 621 mmHg 33%
    19:00 +23°C° 0 mm 1 mps 621 mmHg 37%
    20:00 +22°C° 0 mm 1 mps 621 mmHg 40%
    21:00 +20°C° 0 mm 0 mps 621 mmHg 42%
    22:00 +19°C° 0 mm 0 mps 621 mmHg 44%
    23:00 +20°C° 0 mm 1 mps 621 mmHg 47%

    Tomorrow, 14 November, Wednesday

    Time Temperature Precipitation Wind Pressure Humidity
    00:00 +20°C° 0 mm 1 mps 621 mmHg 51%
    01:00 +19°C° 0 mm 1 mps 621 mmHg 54%
    02:00 +19°C° 0 mm 1 mps 621 mmHg 57%
    03:00 +18°C° 0 mm 1 mps 620 mmHg 60%
    04:00 +18°C° 0 mm 1 mps 620 mmHg 63%
    05:00 +19°C° 0 mm 1 mps 621 mmHg 62%
    06:00 +20°C° 0 mm 1 mps 622 mmHg 61%
    07:00 +22°C° 0 mm 1 mps 622 mmHg 60%
    08:00 +24°C° 0 mm 1 mps 623 mmHg 51%
    09:00 +27°C° 0 mm 2 mps 624 mmHg 41%
    10:00 +29°C° 0 mm 2 mps 625 mmHg 32%
    11:00 +30°C° 0 mm 3 mps 624 mmHg 27%
    12:00 +31°C° 0 mm 3 mps 624 mmHg 23%
    13:00 +33°C° 0 mm 3 mps 623 mmHg 18%
    14:00 +32°C° 0 mm 2 mps 623 mmHg 18%
    15:00 +32°C° 0 mm 2 mps 622 mmHg 18%
    16:00 +31°C° 0 mm 2 mps 622 mmHg 18%
    17:00 +28°C° 0 mm 1 mps 621 mmHg 22%
    18:00 +26°C° 0 mm 1 mps 621 mmHg 26%
    19:00 +23°C° 0 mm 1 mps 621 mmHg 30%
    20:00 +21°C° 0 mm 2 mps 621 mmHg 38%
    21:00 +20°C° 0 mm 2 mps 622 mmHg 46%
    22:00 +20°C° 0 mm 2 mps 622 mmHg 54%
    23:00 +19°C° 0 mm 2 mps 622 mmHg 63%

    Day after tomorrow, 15 November, Thursday

    Time Temperature Precipitation Wind Pressure Humidity
    00:00 +18°C° 0 mm 2 mps 621 mmHg 71%
    01:00 +18°C° 0 mm 3 mps 621 mmHg 79%
    02:00 +18°C° 0 mm 2 mps 621 mmHg 81%
    03:00 +17°C° 0 mm 2 mps 621 mmHg 82%
    04:00 +17°C° 0 mm 2 mps 621 mmHg 83%
    05:00 +18°C° 0 mm 2 mps 622 mmHg 80%
    06:00 +19°C° 0 mm 2 mps 622 mmHg 77%
    07:00 +20°C° 0 mm 2 mps 623 mmHg 73%
    08:00 +24°C° 0 mm 2 mps 624 mmHg 61%
    09:00 +27°C° 0 mm 2 mps 625 mmHg 48%
    10:00 +29°C° 0 mm 2 mps 625 mmHg 36%
    11:00 +31°C° 0 mm 2 mps 625 mmHg 30%
    12:00 +32°C° 0 mm 2 mps 625 mmHg 24%
    13:00 +34°C° 0 mm 3 mps 624 mmHg 19%
    14:00 +32°C° 0 mm 2 mps 623 mmHg 20%
    15:00 +32°C° 0 mm 2 mps 623 mmHg 20%
    16:00 +31°C° 0 mm 1 mps 622 mmHg 21%
    17:00 +29°C° 0 mm 1 mps 622 mmHg 26%
    18:00 +26°C° 0 mm 1 mps 622 mmHg 30%
    19:00 +24°C° 0 mm 1 mps 622 mmHg 34%
    20:00 +23°C° 0 mm 2 mps 622 mmHg 40%
    21:00 +21°C° 0 mm 2 mps 622 mmHg 47%
    22:00 +20°C° 0 mm 2 mps 623 mmHg 53%
    23:00 +19°C° 0 mm 2 mps 622 mmHg 62%

    16 November, Friday

    Time Temperature Precipitation Wind Pressure Humidity
    00:00 +18°C° 0 mm 2 mps 622 mmHg 72%
    01:00 +17°C° 0 mm 2 mps 621 mmHg 81%
    02:00 +17°C° 0 mm 2 mps 621 mmHg 84%
    03:00 +17°C° 0 mm 2 mps 621 mmHg 87%
    04:00 +16°C° 0 mm 2 mps 621 mmHg 89%
    05:00 +17°C° 0 mm 2 mps 622 mmHg 85%
    06:00 +18°C° 0 mm 2 mps 623 mmHg 81%
    07:00 +19°C° 0 mm 2 mps 623 mmHg 77%
    08:00 +24°C° 0 mm 2 mps 624 mmHg 64%
    09:00 +27°C° 0 mm 2 mps 625 mmHg 51%
    10:00 +30°C° 0 mm 1 mps 626 mmHg 38%
    11:00 +32°C° 0 mm 1 mps 626 mmHg 34%
    12:00 +33°C° 0 mm 1 mps 626 mmHg 29%
    13:00 +35°C° 0 mm 1 mps 625 mmHg 24%
    14:00 +33°C° 0 mm 1 mps 624 mmHg 28%
    15:00 +31°C° 0 mm 1 mps 623 mmHg 32%
    16:00 +29°C° 0 mm 1 mps 622 mmHg 35%
    17:00 +27°C° 0 mm 1 mps 622 mmHg 41%
    18:00 +25°C° 0 mm 2 mps 622 mmHg 47%
    19:00 +23°C° 0 mm 2 mps 622 mmHg 52%
    20:00 +21°C° 0.2 mm 2 mps 622 mmHg 59%
    21:00 +20°C° 0.2 mm 3 mps 623 mmHg 66%
    22:00 +19°C° 0.2 mm 3 mps 623 mmHg 73%
    23:00 +19°C° 0.1 mm 3 mps 623 mmHg 76%

    17 November, Saturday

    Time Temperature Precipitation Wind Pressure Humidity
    00:00 +19°C° 0.1 mm 3 mps 623 mmHg 79%
    01:00 +18°C° 0.1 mm 3 mps 622 mmHg 81%
    02:00 +18°C° 0.4 mm 2 mps 622 mmHg 84%
    03:00 +17°C° 0.4 mm 2 mps 622 mmHg 87%
    04:00 +16°C° 0.4 mm 1 mps 622 mmHg 90%
    05:00 +18°C° 0 mm 2 mps 622 mmHg 86%
    06:00 +19°C° 0 mm 2 mps 623 mmHg 81%
    07:00 +20°C° 0 mm 2 mps 624 mmHg 76%
    08:00 +24°C° 0.1 mm 2 mps 625 mmHg 65%
    09:00 +26°C° 0.1 mm 2 mps 625 mmHg 54%
    10:00 +29°C° 0.1 mm 2 mps 626 mmHg 42%
    11:00 +29°C° 0 mm 2 mps 625 mmHg 40%
    12:00 +30°C° 0 mm 2 mps 625 mmHg 38%
    13:00 +30°C° 0 mm 2 mps 624 mmHg 35%
    14:00 +29°C° 0 mm 2 mps 624 mmHg 37%
    15:00 +29°C° 0 mm 1 mps 623 mmHg 38%
    16:00 +29°C° 0 mm 1 mps 623 mmHg 39%
    17:00 +27°C° 0 mm 1 mps 623 mmHg 45%
    18:00 +25°C° 0 mm 1 mps 623 mmHg 50%
    19:00 +23°C° 0 mm 2 mps 623 mmHg 56%
    20:00 +22°C° 0.7 mm 1 mps 623 mmHg 65%
    21:00 +21°C° 0.7 mm 1 mps 623 mmHg 74%
    22:00 +19°C° 0.7 mm 1 mps 623 mmHg 83%
    23:00 +19°C° 0.4 mm 1 mps 623 mmHg 85%

    18 November, Sunday

    Time Temperature Precipitation Wind Pressure Humidity
    00:00 +19°C° 0.4 mm 1 mps 622 mmHg 86%
    01:00 +18°C° 0.4 mm 2 mps 622 mmHg 88%
    02:00 +18°C° 0.2 mm 1 mps 622 mmHg 89%
    03:00 +18°C° 0.2 mm 1 mps 621 mmHg 90%
    04:00 +18°C° 0.2 mm 1 mps 621 mmHg 90%
    05:00 +19°C° 0 mm 1 mps 622 mmHg 86%
    06:00 +20°C° 0 mm 1 mps 623 mmHg 81%
    07:00 +21°C° 0 mm 1 mps 624 mmHg 77%
    08:00 +24°C° 0 mm 1 mps 625 mmHg 64%
    09:00 +27°C° 0 mm 1 mps 625 mmHg 52%
    10:00 +30°C° 0 mm 1 mps 626 mmHg 39%
    11:00 +30°C° 0 mm 2 mps 625 mmHg 37%
    12:00 +31°C° 0 mm 2 mps 625 mmHg 34%
    13:00 +31°C° 0 mm 3 mps 624 mmHg 32%
    14:00 +30°C° 0 mm 2 mps 623 mmHg 35%
    15:00 +29°C° 0 mm 2 mps 623 mmHg 39%
    16:00 +28°C° 0 mm 2 mps 622 mmHg 42%
    17:00 +25°C° 1.8 mm 2 mps 622 mmHg 56%
    18:00 +21°C° 1.8 mm 3 mps 622 mmHg 70%
    19:00 +19°C° 1.8 mm 3 mps 621 mmHg 84%
    20:00 +18°C° 1.3 mm 3 mps 622 mmHg 85%
    21:00 +18°C° 1.3 mm 2 mps 622 mmHg 86%
    22:00 +19°C° 1.3 mm 1 mps 623 mmHg 87%
    23:00 +18°C° 0.6 mm 1 mps 622 mmHg 88%
    Show more